Change the Weather History Date:

Wednesday, May 1, 2013

  Actual Average Record
Temperature  
Mean Temperature 58 °F 59 °F  
Max Temperature 69 °F 69 °F 90 °F (1942)
Min Temperature 46 °F 49 °F 34 °F (1978)
Degree Days  
Heating Degree Days 7 7  
Month to date heating degree days 7 7  
Since 1 July heating degree days 4260 4497  
Cooling Degree Days 0 1  
Month to date cooling degree days 0 1  
Year to date cooling degree days 17 14  
Growing Degree Days 8 (Base 50)    
Moisture  
Dew Point 37 °F    
Average Humidity 49    
Maximum Humidity 71    
Minimum Humidity 26    
Precipitation  
Precipitation 0.00 in 0.10 in 1.77 in (1976)
Month to date precipitation 0.00 0.10  
Year to date precipitation 10.20 13.13  
Snow  
Snow 0.00 in 0.00 in T in (1963)
Month to date snowfall 0.0 0.0  
Since 1 July snowfall 8.3 22.4  
Snow Depth 0.00 in    
Sea Level Pressure  
Sea Level Pressure 30.41 in    
Wind  
Wind Speed 9 mph (ENE)    
Max Wind Speed 17 mph    
Max Gust Speed 24 mph    
Visibility 10 miles    
Events      
T = Trace of Precipitation, MM = Missing Value Source: NWS Daily Summary

Daily Weather History Graph

Daily Weather History Graph

Search for Another Location

Airport or City:

Trip Planner

Search our weather history database for the weather conditions in past years. The results will help you decide how hot, cold, wet, or windy it might be!

Date:

Astronomy

May. 01, 2013 Rise Set
Actual Time 6:00 AM EDT 7:55 PM EDT
Civil Twilight 5:31 AM EDT 8:24 PM EDT
Nautical Twilight 4:56 AM EDT 9:00 PM EDT
Astronomical Twilight 4:17 AM EDT 9:39 PM EDT
Moon 1:03 AM EDT (5/1) 11:36 AM EDT (5/1)
Length of Visible Light 14h 53m
Length of Day
13h 54m
Waning Gibbous, 59% of the Moon is Illuminated
May 1
Waning Gibbous
May 2
Last Quarter
May 9
New
May 18
First Quarter
May 25
Full

Hourly Weather History & Observations

Time (EDT) Temp. Dew Point Humidity Pressure Visibility Wind Dir Wind Speed Gust Speed Precip Events Conditions
12:54 AM 48.9 °F 35.1 °F 59% 30.34 in 10.0 mi NNE 5.8 mph - N/A   Clear
1:54 AM 48.0 °F 35.1 °F 61% 30.32 in 10.0 mi NE 6.9 mph - N/A   Clear
2:54 AM 48.0 °F 36.0 °F 63% 30.34 in 10.0 mi NE 6.9 mph - N/A   Clear
3:54 AM 48.0 °F 34.0 °F 58% 30.35 in 10.0 mi NE 5.8 mph - N/A   Clear
4:54 AM 46.9 °F 35.1 °F 63% 30.36 in 10.0 mi NNE 4.6 mph - N/A   Partly Cloudy
5:54 AM 46.9 °F 35.1 °F 63% 30.37 in 10.0 mi NE 5.8 mph - N/A   Partly Cloudy
6:54 AM 50.0 °F 36.0 °F 59% 30.39 in 10.0 mi NE 8.1 mph - N/A   Scattered Clouds
7:54 AM 53.1 °F 36.0 °F 52% 30.41 in 10.0 mi NE 11.5 mph - N/A   Partly Cloudy
8:54 AM 57.0 °F 35.1 °F 44% 30.42 in 10.0 mi ENE 11.5 mph - N/A   Partly Cloudy
9:54 AM 61.0 °F 32.0 °F 34% 30.42 in 10.0 mi ENE 8.1 mph - N/A   Partly Cloudy
10:54 AM 64.0 °F 33.1 °F 31% 30.43 in 10.0 mi ENE 11.5 mph - N/A   Partly Cloudy
11:54 AM 66.0 °F 34.0 °F 30% 30.42 in 10.0 mi East 12.7 mph - N/A   Clear
12:54 PM 68.0 °F 32.0 °F 26% 30.41 in 10.0 mi East 11.5 mph - N/A   Clear
1:54 PM 69.1 °F 35.1 °F 29% 30.40 in 10.0 mi East 12.7 mph - N/A   Partly Cloudy
2:54 PM 69.1 °F 36.0 °F 30% 30.40 in 10.0 mi East 13.8 mph - N/A   Partly Cloudy
3:54 PM 68.0 °F 41.0 °F 37% 30.41 in 10.0 mi East 12.7 mph - N/A   Partly Cloudy
4:54 PM 66.0 °F 39.9 °F 38% 30.41 in 10.0 mi East 13.8 mph - N/A   Clear
5:54 PM 64.9 °F 41.0 °F 42% 30.43 in 10.0 mi East 9.2 mph - N/A   Clear
6:54 PM 63.0 °F 41.0 °F 45% 30.44 in 10.0 mi East 8.1 mph - N/A   Partly Cloudy
7:54 PM 59.0 °F 41.0 °F 51% 30.45 in 10.0 mi East 11.5 mph - N/A   Partly Cloudy
8:54 PM 57.0 °F 41.0 °F 55% 30.46 in 10.0 mi East 9.2 mph - N/A   Clear
9:54 PM 55.0 °F 41.0 °F 59% 30.47 in 10.0 mi East 8.1 mph - N/A   Clear
10:54 PM 53.1 °F 43.0 °F 69% 30.47 in 10.0 mi East 8.1 mph - N/A   Clear
11:54 PM 51.1 °F 42.1 °F 71% 30.46 in 10.0 mi ENE 8.1 mph - N/A   Clear